Location: Unnamed
(25.2826°S, 57.6099°W)
Time: 19:00:21
(UTC-04:00)

Envisat - Pass Details

Date: 18 January 2026
Orbit: 761 x 763 km, 98.4° (Epoch: 14 February)

Event Time Altitude Azimuth Distance (km) Brightness Sun altitude
Exits shadow 01:33:53 21° 169° (S) 1,685 5.2 -38.9°
Drops below altitude 10° 01:35:37 10° 178° (S) 2,315 6.1 -38.7°
Sets 01:38:00 0° 183° (S) 3,247 6.9 -38.5°
